Location: Cicognara
(44.9500°N, 10.4667°E)
Time: 07:17:44
(UTC+00:00)

Lacrosse 4 Rocket - Pass Details

Date: 25 October 2021
Orbit: 537 x 619 km, 68.0° (Epoch: 01 December)

Event Time Altitude Azimuth Distance (km) Brightness Sun altitude
Rises 17:31:53 0° 329° (NNW) 2,816 5.3 -13.9°
Reaches altitude 10° 17:34:05 10° 328° (NNW) 1,925 4.5 -14.3°
Maximum altitude 17:38:25 83° 244° (WSW) 610 1.5 -15.1°
Drops below altitude 10° 17:42:50 10° 154° (SSE) 1,955 3.9 -15.9°
Enters shadow 17:44:30 - 154° (SSE) 2,622 4.5 -16.1°
